Location: Vihti�l�
(61.3833°N, 23.0667°E)
Time: 04:46:18
(UTC+00:00)

Cosmos 2278 Rocket - Pass Details

Date: 29 November 2020
Orbit: 839 x 847 km, 71.0° (Epoch: 22 January)

Event Time Altitude Azimuth Distance (km) Brightness Sun altitude
Rises 05:29:49 0° 190° (S) 3,389 5.6 -10.5°
Reaches altitude 10° 05:32:21 10° 184° (S) 2,459 4.9 -10.2°
Maximum altitude 05:37:36 42° 115° (ESE) 1,197 3.7 -9.6°
Drops below altitude 10° 05:42:54 10° 47° (NE) 2,478 4.9 -9.1°
Sets 05:45:28 0° 41° (NE) 3,418 5.5 -8.8°
